Location: Copeville
(33.0796°N, 96.4155°W)
Time: 22:58:18
(UTC+00:00)

NOAA 19 - Pass Details

Date: 08 April 2023
Orbit: 840 x 859 km, 99.1° (Epoch: 28 May)

Event Time Altitude Azimuth Distance (km) Brightness Sun altitude
Exits shadow 01:41:46 11° 132° (SE) 2,364 7.0 -11.4°
Maximum altitude 01:46:23 35° 70° (ENE) 1,335 5.9 -12.3°
Drops below altitude 10° 01:51:16 10° 6° (N) 2,464 7.8 -13.3°
Sets 01:53:48 0° 358° (N) 3,401 8.6 -13.8°
